This is the latest recevied weather packets stored in our database for station/object KI4HRG. If no packets are shown the sender has not sent any weather packets the latest 10 day(s).
| Time | Temp. | Humidity | Pressure | Rain* | Wind** | Luminosity | Snow |
|---|---|---|---|---|---|---|---|
| 1777605028 | 16.11° C | 64% | 1014.2 hPa | 0 mm | - | 0 W/m² | - |
| 1777604724 | 16.11° C | 68% | 1014 hPa | 0 mm | - | 0 W/m² | - |
| 1777604421 | 16.11° C | 66% | 1014 hPa | 0 mm | - | 0 W/m² | - |
| 1777604120 | 16.11° C | 65% | 1014 hPa | 0 mm | - | 0 W/m² | - |
| 1777603817 | 16.11° C | 64% | 1013.9 hPa | 0 mm | - | 0 W/m² | - |
| 1777603514 | 16.67° C | 65% | 1014 hPa | 0 mm | - | 0 W/m² | - |
| 1777603209 | 16.11° C | 64% | 1013.9 hPa | 0 mm | - | 0 W/m² | - |
| 1777602905 | 16.67° C | 64% | 1014 hPa | 0 mm | - | 0 W/m² | - |
| 1777602601 | 16.67° C | 66% | 1013.9 hPa | 0 mm | - | 0 W/m² | - |
| 1777602296 | 16.67° C | 67% | 1013.8 hPa | 0 mm | - | 0 W/m² | - |
| 1777601991 | 16.67° C | 68% | 1013.6 hPa | 0 mm | - | 0 W/m² | - |
| 1777601687 | 16.11° C | 68% | 1013.7 hPa | 0 mm | - | 0 W/m² | - |
| 1777601382 | 16.11° C | 67% | 1013.7 hPa | 0 mm | - | 0 W/m² | - |
| 1777601079 | 16.11° C | 67% | 1013.5 hPa | 0 mm | - | 0 W/m² | - |
| 1777600776 | 16.11° C | 68% | 1013.3 hPa | 0 mm | - | 0 W/m² | - |
| 1777600472 | 16.11° C | 67% | 1013.5 hPa | 0 mm | - | 0 W/m² | - |
| 1777600168 | 16.11° C | 67% | 1013.3 hPa | 0 mm | - | 0 W/m² | - |
| 1777599863 | 16.11° C | 68% | 1013.2 hPa | 0 mm | - | 0 W/m² | - |
| 1777599560 | 16.11° C | 70% | 1013.4 hPa | 0 mm | - | 0 W/m² | - |
| 1777599257 | 16.11° C | 68% | 1013.2 hPa | 0 mm | - | 0 W/m² | - |
| 1777598953 | 16.11° C | 67% | 1013.1 hPa | 0 mm | - | 0 W/m² | - |
| 1777598650 | 16.11° C | 68% | 1013.1 hPa | 0 mm | - | 0 W/m² | - |
| 1777598346 | 16.11° C | 70% | 1013 hPa | 0 mm | - | 0 W/m² | - |
| 1777598044 | 16.11° C | 70% | 1013.1 hPa | 0 mm | - | 0 W/m² | - |
| 1777597744 | 16.11° C | 70% | 1012.9 hPa | 0 mm | - | 0 W/m² | - |
* Rain latest hour (hover to see other rain measurements)
** Current wind speed in m/s (hover to see current wind gust speed)